Find Shi Jian 6/4A

NORAD ID: 37180 Int'l Des: 2010-051 Owner: CASC Country: CN operational
LEOCIRCULARRETROGRADESSO

Live Position

Loading 3D Globe...

About Shi Jian 6/4A

Description loading...

Upcoming Passes

Passes for default location (London). Set your location on the main map for personalized predictions.

Altitude History

Loading altitude history...

Two-Line Element Set

1 37180U 10051B 26104.55225727 .00000986 00000-0 85971-4 0 9991
2 37180 97.8708 109.3039 0012082 156.0886 204.0900 14.99192514846145
Epoch: Apr 14, 2026 • Age: 5 hours

Current Status

Altitude 566.7 km
Velocity 7.59 km/s
Sub-Earth Point 38.46°N, 172.54°E
Launch Date Oct 6, 2010
Age 15.5 years
Type other

Technical Details

Classification Payload
Mass 350.00 kg
Dry Mass 350.00 kg
Total Mass 350.00 kg
Length 1.00 m
Diameter 1.00 m
Span 4.00 m
Shape Box + 2 Pan
Manufacturer DFHZ
Bus Type CAST-968
Phase Status In Orbit
Owner/State CASC/CN

Most Searched